Time,TemperatureF,DewpointF,PressureIn,WindDirection,WindDirectionDegrees,WindSpeedMPH,WindSpeedGustMPH,Humidity,HourlyPrecipIn,Conditions,Clouds,dailyrainin,SolarRadiationWatts/m^2,SoftwareType,DateUTC
2013-03-24 00:03:00,25.0,21.0,-100.00,NNE,32,4.0,9.0,85,0.00,,,0.00,0.000000,,2013-03-24 04:03:00,
2013-03-24 00:12:00,25.0,19.0,-100.00,North,7,4.0,9.0,79,0.00,,,0.00,0.000000,,2013-03-24 04:12:00,
2013-03-24 00:33:00,25.0,19.0,-100.00,North,7,4.0,9.0,79,0.00,,,0.00,0.000000,,2013-03-24 04:33:00,
2013-03-24 00:43:00,25.0,19.0,-100.00,North,7,4.0,9.0,79,0.00,,,0.00,0.000000,,2013-03-24 04:43:00,
2013-03-24 00:53:00,25.0,19.0,-100.00,North,7,4.0,9.0,79,0.00,,,0.00,0.000000,,2013-03-24 04:53:00,
2013-03-24 01:02:00,25.0,19.0,-100.00,North,7,4.0,9.0,79,0.00,,,0.00,0.000000,,2013-03-24 05:02:00,
2013-03-24 01:12:00,25.0,19.0,-100.00,North,356,4.0,12.0,76,0.00,,,0.00,0.000000,,2013-03-24 05:12:00,
2013-03-24 01:32:00,25.0,19.0,-100.00,North,356,4.0,12.0,76,0.00,,,0.00,0.000000,,2013-03-24 05:32:00,
2013-03-24 01:43:00,25.0,19.0,-100.00,North,356,4.0,12.0,76,0.00,,,0.00,0.000000,,2013-03-24 05:43:00,
2013-03-24 01:52:00,25.0,19.0,-100.00,North,356,4.0,12.0,76,0.00,,,0.00,0.000000,,2013-03-24 05:52:00,
2013-03-24 02:02:00,25.0,19.0,-100.00,North,356,4.0,12.0,76,0.00,,,0.00,0.000000,,2013-03-24 06:02:00,
2013-03-24 02:12:00,25.0,19.0,-100.00,North,0,4.0,9.0,76,0.00,,,0.00,0.000000,,2013-03-24 06:12:00,
2013-03-24 02:32:00,25.0,19.0,-100.00,North,0,4.0,9.0,76,0.00,,,0.00,0.000000,,2013-03-24 06:32:00,
2013-03-24 02:42:00,25.0,19.0,-100.00,North,0,4.0,9.0,76,0.00,,,0.00,0.000000,,2013-03-24 06:42:00,
2013-03-24 02:52:00,25.0,19.0,-100.00,North,0,4.0,9.0,76,0.00,,,0.00,0.000000,,2013-03-24 06:52:00,
2013-03-24 03:02:00,25.0,19.0,-100.00,North,0,4.0,9.0,76,0.00,,,0.00,0.000000,,2013-03-24 07:02:00,
2013-03-24 03:12:00,24.0,18.0,-100.00,NW,310,3.0,8.0,78,0.00,,,0.00,0.000000,,2013-03-24 07:12:00,
2013-03-24 03:32:00,24.0,18.0,-100.00,NW,310,3.0,8.0,78,0.00,,,0.00,0.000000,,2013-03-24 07:32:00,
2013-03-24 03:42:00,24.0,18.0,-100.00,NW,310,3.0,8.0,78,0.00,,,0.00,0.000000,,2013-03-24 07:42:00,
2013-03-24 03:52:00,24.0,18.0,-100.00,NW,310,3.0,8.0,78,0.00,,,0.00,0.000000,,2013-03-24 07:52:00,
2013-03-24 04:03:00,24.0,18.0,-100.00,NW,310,3.0,8.0,78,0.00,,,0.00,0.000000,,2013-03-24 08:03:00,
2013-03-24 04:12:00,24.0,18.0,-100.00,West,271,2.0,4.0,79,0.00,,,0.00,0.000000,,2013-03-24 08:12:00,
2013-03-24 04:32:00,24.0,18.0,-100.00,West,271,2.0,4.0,79,0.00,,,0.00,0.000000,,2013-03-24 08:32:00,
2013-03-24 04:42:00,24.0,18.0,-100.00,West,271,2.0,4.0,79,0.00,,,0.00,0.000000,,2013-03-24 08:42:00,
2013-03-24 04:52:00,24.0,18.0,-100.00,West,271,2.0,4.0,79,0.00,,,0.00,0.000000,,2013-03-24 08:52:00,
2013-03-24 05:02:00,24.0,18.0,-100.00,West,271,2.0,4.0,79,0.00,,,0.00,0.000000,,2013-03-24 09:02:00,
2013-03-24 05:12:00,24.0,18.0,-100.00,NW,304,3.0,6.0,79,0.00,,,0.00,0.000000,,2013-03-24 09:12:00,
2013-03-24 05:33:00,24.0,18.0,-100.00,NW,304,3.0,6.0,79,0.00,,,0.00,0.000000,,2013-03-24 09:33:00,
2013-03-24 05:43:00,24.0,18.0,-100.00,NW,304,3.0,6.0,79,0.00,,,0.00,0.000000,,2013-03-24 09:43:00,
2013-03-24 05:52:00,24.0,18.0,-100.00,NW,304,3.0,6.0,79,0.00,,,0.00,0.000000,,2013-03-24 09:52:00,
2013-03-24 06:03:00,24.0,18.0,-100.00,NW,304,3.0,6.0,79,0.00,,,0.00,0.000000,,2013-03-24 10:03:00,
2013-03-24 06:12:00,24.0,18.0,-100.00,NW,315,2.0,6.0,78,0.00,,,0.00,0.000000,,2013-03-24 10:12:00,
2013-03-24 06:42:00,24.0,18.0,-100.00,NW,315,2.0,6.0,78,0.00,,,0.00,0.000000,,2013-03-24 10:42:00,
2013-03-24 06:52:00,24.0,18.0,-100.00,NW,315,2.0,6.0,78,0.00,,,0.00,0.000000,,2013-03-24 10:52:00,
2013-03-24 07:03:00,24.0,18.0,-100.00,NW,315,2.0,6.0,78,0.00,,,0.00,0.000000,,2013-03-24 11:03:00,
2013-03-24 07:12:00,24.0,18.0,-100.00,WNW,293,2.0,4.0,79,0.00,,,0.00,0.000000,,2013-03-24 11:12:00,
2013-03-24 07:33:00,24.0,18.0,-100.00,WNW,293,2.0,4.0,79,0.00,,,0.00,0.000000,,2013-03-24 11:33:00,
2013-03-24 07:42:00,24.0,18.0,-100.00,WNW,293,2.0,4.0,79,0.00,,,0.00,0.000000,,2013-03-24 11:42:00,
2013-03-24 07:52:00,24.0,18.0,-100.00,WNW,293,2.0,4.0,79,0.00,,,0.00,0.000000,,2013-03-24 11:52:00,
2013-03-24 08:02:00,24.0,18.0,-100.00,WNW,293,2.0,4.0,79,0.00,,,0.00,0.000000,,2013-03-24 12:02:00,
2013-03-24 08:12:00,24.0,18.0,-100.00,NNW,341,2.0,4.0,79,0.00,,,0.00,3.000000,,2013-03-24 12:12:00,
2013-03-24 08:32:00,24.0,18.0,-100.00,NNW,341,2.0,4.0,79,0.00,,,0.00,3.000000,,2013-03-24 12:32:00,
2013-03-24 08:42:00,24.0,18.0,-100.00,NNW,341,2.0,4.0,79,0.00,,,0.00,3.000000,,2013-03-24 12:42:00,
2013-03-24 08:52:00,24.0,18.0,-100.00,NNW,341,2.0,4.0,79,0.00,,,0.00,3.000000,,2013-03-24 12:52:00,
2013-03-24 09:02:00,24.0,18.0,-100.00,NNW,341,2.0,4.0,79,0.00,,,0.00,3.000000,,2013-03-24 13:02:00,
2013-03-24 09:12:00,26.0,21.0,-100.00,NNE,16,3.0,7.0,82,0.00,,,0.00,32.000000,,2013-03-24 13:12:00,
2013-03-24 09:43:00,26.0,21.0,-100.00,NNE,16,3.0,7.0,82,0.00,,,0.00,32.000000,,2013-03-24 13:43:00,
2013-03-24 09:52:00,26.0,21.0,-100.00,NNE,16,3.0,7.0,82,0.00,,,0.00,32.000000,,2013-03-24 13:52:00,
2013-03-24 10:02:00,26.0,21.0,-100.00,NNE,16,3.0,7.0,82,0.00,,,0.00,32.000000,,2013-03-24 14:02:00,
2013-03-24 10:12:00,28.0,23.0,-100.00,ENE,77,5.0,10.0,81,0.00,,,0.00,107.000000,,2013-03-24 14:12:00,
2013-03-24 10:33:00,28.0,23.0,-100.00,ENE,77,5.0,10.0,81,0.00,,,0.00,107.000000,,2013-03-24 14:33:00,
2013-03-24 10:43:00,28.0,23.0,-100.00,ENE,77,5.0,10.0,81,0.00,,,0.00,107.000000,,2013-03-24 14:43:00,
2013-03-24 10:52:00,28.0,23.0,-100.00,ENE,77,5.0,10.0,81,0.00,,,0.00,107.000000,,2013-03-24 14:52:00,
2013-03-24 11:02:00,28.0,23.0,-100.00,ENE,77,5.0,10.0,81,0.00,,,0.00,107.000000,,2013-03-24 15:02:00,
2013-03-24 11:12:00,29.0,24.0,-100.00,ENE,69,4.0,11.0,82,0.00,,,0.00,125.000000,,2013-03-24 15:12:00,
2013-03-24 11:43:00,29.0,24.0,-100.00,ENE,69,4.0,11.0,82,0.00,,,0.00,125.000000,,2013-03-24 15:43:00,
2013-03-24 11:53:00,29.0,24.0,-100.00,ENE,69,4.0,11.0,82,0.00,,,0.00,125.000000,,2013-03-24 15:53:00,
2013-03-24 12:03:00,29.0,24.0,-100.00,ENE,69,4.0,11.0,82,0.00,,,0.00,125.000000,,2013-03-24 16:03:00,
2013-03-24 12:12:00,29.0,21.0,-100.00,NE,50,5.0,11.0,72,0.00,,,0.00,144.000000,,2013-03-24 16:12:00,
2013-03-24 12:43:00,29.0,21.0,-100.00,NE,50,5.0,11.0,72,0.00,,,0.00,144.000000,,2013-03-24 16:43:00,
2013-03-24 12:52:00,29.0,21.0,-100.00,NE,50,5.0,11.0,72,0.00,,,0.00,144.000000,,2013-03-24 16:52:00,
2013-03-24 13:02:00,29.0,21.0,-100.00,NE,50,5.0,11.0,72,0.00,,,0.00,144.000000,,2013-03-24 17:02:00,
2013-03-24 13:12:00,30.0,21.0,-100.00,NE,49,5.0,13.0,68,0.00,,,0.00,209.000000,,2013-03-24 17:12:00,
2013-03-24 13:33:00,30.0,21.0,-100.00,NE,49,5.0,13.0,68,0.00,,,0.00,209.000000,,2013-03-24 17:33:00,
2013-03-24 13:43:00,30.0,21.0,-100.00,NE,49,5.0,13.0,68,0.00,,,0.00,209.000000,,2013-03-24 17:43:00,
2013-03-24 13:53:00,30.0,21.0,-100.00,NE,49,5.0,13.0,68,0.00,,,0.00,209.000000,,2013-03-24 17:53:00,
2013-03-24 14:03:00,30.0,21.0,-100.00,NE,49,5.0,13.0,68,0.00,,,0.00,209.000000,,2013-03-24 18:03:00,
2013-03-24 14:12:00,30.0,22.0,-100.00,NNE,32,5.0,13.0,72,0.00,,,0.00,226.000000,,2013-03-24 18:12:00,
2013-03-24 14:33:00,30.0,22.0,-100.00,NNE,32,5.0,13.0,72,0.00,,,0.00,226.000000,,2013-03-24 18:33:00,
2013-03-24 14:43:00,30.0,22.0,-100.00,NNE,32,5.0,13.0,72,0.00,,,0.00,226.000000,,2013-03-24 18:43:00,
2013-03-24 14:52:00,30.0,22.0,-100.00,NNE,32,5.0,13.0,72,0.00,,,0.00,226.000000,,2013-03-24 18:52:00,
2013-03-24 15:02:00,30.0,22.0,-100.00,NNE,32,5.0,13.0,72,0.00,,,0.00,226.000000,,2013-03-24 19:02:00,
2013-03-24 15:12:00,31.0,21.0,-100.00,NNE,29,5.0,12.0,67,0.00,,,0.00,292.000000,,2013-03-24 19:12:00,
2013-03-24 15:32:00,31.0,21.0,-100.00,NNE,29,5.0,12.0,67,0.00,,,0.00,292.000000,,2013-03-24 19:32:00,
2013-03-24 15:43:00,31.0,21.0,-100.00,NNE,29,5.0,12.0,67,0.00,,,0.00,292.000000,,2013-03-24 19:43:00,
2013-03-24 15:53:00,31.0,21.0,-100.00,NNE,29,5.0,12.0,67,0.00,,,0.00,292.000000,,2013-03-24 19:53:00,
2013-03-24 16:03:00,31.0,21.0,-100.00,NNE,29,5.0,12.0,67,0.00,,,0.00,292.000000,,2013-03-24 20:03:00,
2013-03-24 16:12:00,29.0,22.0,-100.00,NNE,31,6.0,17.0,76,0.00,,,0.00,271.000000,,2013-03-24 20:12:00,
2013-03-24 16:43:00,29.0,22.0,-100.00,NNE,31,6.0,17.0,76,0.00,,,0.00,271.000000,,2013-03-24 20:43:00,
2013-03-24 16:53:00,29.0,22.0,-100.00,NNE,31,6.0,17.0,76,0.00,,,0.00,271.000000,,2013-03-24 20:53:00,
2013-03-24 17:02:00,29.0,22.0,-100.00,NNE,31,6.0,17.0,76,0.00,,,0.00,271.000000,,2013-03-24 21:02:00,
2013-03-24 17:12:00,29.0,19.0,-100.00,NNE,23,7.0,19.0,67,0.00,,,0.00,257.000000,,2013-03-24 21:12:00,
2013-03-24 17:33:00,29.0,19.0,-100.00,NNE,23,7.0,19.0,67,0.00,,,0.00,257.000000,,2013-03-24 21:33:00,
2013-03-24 17:43:00,29.0,19.0,-100.00,NNE,23,7.0,19.0,67,0.00,,,0.00,257.000000,,2013-03-24 21:43:00,
2013-03-24 17:53:00,29.0,19.0,-100.00,NNE,23,7.0,19.0,67,0.00,,,0.00,257.000000,,2013-03-24 21:53:00,
2013-03-24 18:03:00,29.0,19.0,-100.00,NNE,23,7.0,19.0,67,0.00,,,0.00,257.000000,,2013-03-24 22:03:00,
2013-03-24 18:12:00,28.0,19.0,-100.00,NNE,22,7.0,18.0,68,0.00,,,0.00,166.000000,,2013-03-24 22:12:00,
2013-03-24 18:33:00,28.0,19.0,-100.00,NNE,22,7.0,18.0,68,0.00,,,0.00,166.000000,,2013-03-24 22:33:00,
2013-03-24 18:43:00,28.0,19.0,-100.00,NNE,22,7.0,18.0,68,0.00,,,0.00,166.000000,,2013-03-24 22:43:00,
2013-03-24 18:52:00,28.0,19.0,-100.00,NNE,22,7.0,18.0,68,0.00,,,0.00,166.000000,,2013-03-24 22:52:00,
2013-03-24 19:03:00,28.0,19.0,-100.00,NNE,22,7.0,18.0,68,0.00,,,0.00,166.000000,,2013-03-24 23:03:00,
2013-03-24 19:12:00,26.0,19.0,-100.00,NNE,23,7.0,18.0,73,0.00,,,0.00,118.000000,,2013-03-24 23:12:00,
2013-03-24 19:32:00,26.0,19.0,-100.00,NNE,23,7.0,18.0,73,0.00,,,0.00,118.000000,,2013-03-24 23:32:00,
2013-03-24 19:42:00,26.0,19.0,-100.00,NNE,23,7.0,18.0,73,0.00,,,0.00,118.000000,,2013-03-24 23:42:00,
2013-03-24 19:53:00,26.0,19.0,-100.00,NNE,23,7.0,18.0,73,0.00,,,0.00,118.000000,,2013-03-24 23:53:00,
2013-03-24 20:02:00,26.0,19.0,-100.00,NNE,23,7.0,18.0,73,0.00,,,0.00,118.000000,,2013-03-25 00:02:00,
2013-03-24 21:12:00,25.0,20.0,-100.00,North,355,6.0,15.0,81,-99.99,,,0.00,0.000000,,2013-03-25 01:12:00,
2013-03-24 21:42:00,25.0,20.0,-100.00,North,355,6.0,15.0,81,-99.99,,,0.00,0.000000,,2013-03-25 01:42:00,
2013-03-24 21:52:00,25.0,20.0,-100.00,North,355,6.0,15.0,81,-99.99,,,0.00,0.000000,,2013-03-25 01:52:00,
2013-03-24 22:02:00,25.0,20.0,-100.00,North,355,6.0,15.0,81,-99.99,,,0.00,0.000000,,2013-03-25 02:02:00,
2013-03-24 22:12:00,23.0,19.0,-100.00,NNW,344,4.0,11.0,85,0.00,,,0.00,0.000000,,2013-03-25 02:12:00,
2013-03-24 22:43:00,23.0,19.0,-100.00,NNW,344,4.0,11.0,85,0.00,,,0.00,0.000000,,2013-03-25 02:43:00,
2013-03-24 22:52:00,23.0,19.0,-100.00,NNW,344,4.0,11.0,85,0.00,,,0.00,0.000000,,2013-03-25 02:52:00,
2013-03-24 23:02:00,23.0,19.0,-100.00,NNW,344,4.0,11.0,85,0.00,,,0.00,0.000000,,2013-03-25 03:02:00,
2013-03-24 23:12:00,22.0,19.0,-100.00,NNW,342,5.0,10.0,87,0.00,,,0.00,0.000000,,2013-03-25 03:12:00,
2013-03-24 23:34:00,22.0,19.0,-100.00,NNW,342,5.0,10.0,87,0.00,,,0.00,0.000000,,2013-03-25 03:34:00,
2013-03-24 23:43:00,22.0,19.0,-100.00,NNW,342,5.0,10.0,87,0.00,,,0.00,0.000000,,2013-03-25 03:43:00,
2013-03-24 23:53:00,22.0,19.0,-100.00,NNW,342,5.0,10.0,87,0.00,,,0.00,0.000000,,2013-03-25 03:53:00,